York, NE

4:27 AM CST on December 15, 2019 (GMT -0600)
York Municipal

Weather History for KJYR - August, 2019

Change the Weather History Date:

Friday, August 2, 2019

  Actual Average Record
Temperature  
Mean Temperature 70 °F -  
Max Temperature 73 °F 87 °F 107 °F (1964)
Min Temperature 68 °F 64 °F 51 °F (2002)
Cooling Degree Days 6    
Growing Degree Days 20 (Base 50)    
Moisture  
Dew Point 68 °F    
Average Humidity 92    
Maximum Humidity 100    
Minimum Humidity 83    
Precipitation  
Precipitation 2.09 in - - ()
Sea Level Pressure  
Sea Level Pressure 30.08 in    
Wind  
Wind Speed 9 mph (ESE)    
Max Wind Speed 18 mph    
Max Gust Speed 24 mph    
Visibility 8 miles    
Events Rain , Thunderstorm    
Averages and records for this station are not official NWS values.
T = Trace of Precipitation, MM = Missing Value Source: NWS Daily Summary

Daily Weather History Graph

Daily Weather History Graph

Search for Another Location

Airport or City:

Astronomy

Aug. 02, 2019 Rise Set
Actual Time 6:27 AM CDT 8:45 PM CDT
Civil Twilight 5:56 AM CDT 9:16 PM CDT
Nautical Twilight 5:18 AM CDT 9:53 PM CDT
Astronomical Twilight 4:36 AM CDT 10:35 PM CDT
Moon 8:08 AM CDT (8/2) 10:14 PM CDT (8/2)
Length of Visible Light 15h 19m
Length of Day
14h 17m
Waxing Crescent, 4% of the Moon is Illuminated
Aug 2
Waxing Crescent
Aug 7
First Quarter
Aug 15
Full
Aug 23
Last Quarter
Aug 30
New

Hourly Weather History & Observations

Time (CDT) Temp. Dew Point Humidity Pressure Visibility Wind Dir Wind Speed Gust Speed Precip Events Conditions
12:15 AM 73.4 °F 69.8 °F 88% 30.10 in 10.0 mi SE 9.2 mph - N/A   Scattered Clouds
12:35 AM 73.4 °F 69.8 °F 88% 30.10 in 10.0 mi SE 12.7 mph 16.1 mph N/A   Scattered Clouds
12:55 AM 73.4 °F 68.0 °F 83% 30.11 in 10.0 mi ESE 9.2 mph - N/A   Mostly Cloudy
1:15 AM 71.6 °F 68.0 °F 88% 30.10 in 10.0 mi ESE 8.1 mph - N/A   Mostly Cloudy
1:35 AM 71.6 °F 68.0 °F 88% 30.09 in 10.0 mi SE 9.2 mph - N/A   Scattered Clouds
1:55 AM 71.6 °F 68.0 °F 88% 30.09 in 10.0 mi ESE 8.1 mph - N/A   Mostly Cloudy
2:15 AM 71.6 °F 68.0 °F 88% 30.09 in 10.0 mi ESE 9.2 mph - N/A   Overcast
2:35 AM 71.6 °F 68.0 °F 88% 30.09 in 10.0 mi ESE 6.9 mph - N/A   Overcast
2:55 AM 71.6 °F 68.0 °F 88% 30.08 in 10.0 mi ESE 8.1 mph - N/A   Overcast
3:15 AM 71.6 °F 68.0 °F 88% 30.07 in 10.0 mi ESE 8.1 mph - N/A   Overcast
3:35 AM 71.6 °F 68.0 °F 88% 30.07 in 10.0 mi ESE 10.4 mph - N/A   Mostly Cloudy
3:55 AM 71.6 °F 68.0 °F 88% 30.07 in 10.0 mi ESE 9.2 mph - N/A   Mostly Cloudy
4:15 AM 71.6 °F 68.0 °F 88% 30.08 in 10.0 mi ESE 9.2 mph - N/A   Overcast
4:35 AM 71.6 °F 68.0 °F 88% 30.07 in 10.0 mi ESE 9.2 mph - N/A   Overcast
4:55 AM 71.6 °F 68.0 °F 88% 30.08 in 10.0 mi SE 11.5 mph - N/A Thunderstorm Overcast
5:15 AM 71.6 °F 68.0 °F 88% 30.08 in 10.0 mi SE 11.5 mph - N/A   Overcast
5:35 AM 71.6 °F 68.0 °F 88% 30.08 in 10.0 mi SE 10.4 mph 16.1 mph N/A   Overcast
5:55 AM 69.8 °F 68.0 °F 94% 30.08 in 7.0 mi ESE 9.2 mph - N/A Rain Light Rain
6:15 AM 68.0 °F 68.0 °F 100% 30.09 in 3.0 mi SE 11.5 mph - 0.13 in Rain Rain
6:35 AM 68.0 °F 68.0 °F 100% 30.08 in 0.5 mi ESE 17.3 mph 24.2 mph 1.13 in Rain , Thunderstorm Heavy Thunderstorms and Rain
6:55 AM 68.0 °F 66.2 °F 94% 30.08 in 0.5 mi ESE 18.4 mph - 1.82 in Rain Heavy Rain
7:15 AM 68.0 °F 66.2 °F 94% 30.08 in 2.0 mi East 9.2 mph - 0.14 in Rain Rain
7:35 AM 68.0 °F 66.2 °F 94% 30.09 in 4.0 mi ESE 8.1 mph - 0.19 in Rain Light Rain
7:55 AM 68.0 °F 66.2 °F 94% 30.08 in 4.0 mi SE 12.7 mph - 0.26 in Rain Light Rain
8:15 AM 68.0 °F 66.2 °F 94% 30.09 in 6.0 mi ESE 9.2 mph - 0.01 in Rain Light Rain
8:35 AM 68.0 °F 66.2 °F 94% 30.09 in 9.0 mi SE 6.9 mph - 0.01 in   Overcast
8:55 AM 68.0 °F 66.2 °F 94% 30.08 in 10.0 mi SSE 10.4 mph - 0.01 in   Overcast
9:15 AM 68.0 °F 66.2 °F 94% 30.08 in 9.0 mi SE 9.2 mph - N/A   Overcast
9:35 AM 68.0 °F 66.2 °F 94% 30.09 in 10.0 mi SE 6.9 mph - N/A   Overcast
9:55 AM 68.0 °F 66.2 °F 94% 30.08 in 10.0 mi SE 8.1 mph - N/A   Overcast
10:15 AM 68.0 °F 66.2 °F 94% 30.08 in 10.0 mi SE 8.1 mph - N/A   Overcast
10:35 AM 68.0 °F 66.2 °F 94% 30.10 in 10.0 mi ESE 6.9 mph - N/A   Overcast
10:55 AM 68.0 °F 66.2 °F 94% 30.10 in 10.0 mi SSE 8.1 mph - N/A   Overcast
11:15 AM 69.8 °F 68.0 °F 94% 30.10 in 9.0 mi SSE 8.1 mph - N/A   Overcast
11:35 AM 69.8 °F 68.0 °F 94% 30.10 in 10.0 mi SSE 6.9 mph - N/A   Overcast
11:55 AM 69.8 °F 68.0 °F 94% 30.10 in 10.0 mi SE 8.1 mph - N/A   Overcast
12:15 PM 68.0 °F 68.0 °F 100% 30.10 in 5.0 mi SE 8.1 mph - N/A   Overcast
12:35 PM 68.0 °F 68.0 °F 100% 30.10 in 5.0 mi SE 8.1 mph - N/A   Overcast
12:55 PM 68.0 °F 68.0 °F 100% 30.09 in 2.5 mi SE 8.1 mph - N/A   Overcast
1:15 PM 69.8 °F 68.0 °F 94% 30.10 in 5.0 mi SE 6.9 mph - N/A   Overcast
1:35 PM 69.8 °F 68.0 °F 94% 30.10 in 5.0 mi SE 5.8 mph - N/A   Overcast
1:55 PM 69.8 °F 68.0 °F 94% 30.09 in 7.0 mi SE 5.8 mph - N/A   Overcast
2:15 PM 71.6 °F 69.8 °F 94% 30.08 in 10.0 mi SSE 6.9 mph - N/A   Overcast
2:35 PM 71.6 °F 69.8 °F 94% 30.08 in 10.0 mi SSE 5.8 mph - N/A   Overcast
2:55 PM 71.6 °F 68.0 °F 88% 30.08 in 10.0 mi SSE 5.8 mph - N/A   Overcast
3:15 PM 73.4 °F 69.8 °F 88% 30.08 in 10.0 mi Calm Calm - N/A   Overcast
3:35 PM 73.4 °F 71.6 °F 94% 30.08 in 10.0 mi East 6.9 mph - N/A   Overcast
3:55 PM 73.4 °F 69.8 °F 88% 30.08 in 10.0 mi East 6.9 mph - N/A   Overcast
4:15 PM 73.4 °F 69.8 °F 88% 30.08 in 10.0 mi East 6.9 mph - N/A   Overcast
4:35 PM 73.4 °F 69.8 °F 88% 30.08 in 10.0 mi East 6.9 mph - N/A   Overcast
4:55 PM 73.4 °F 69.8 °F 88% 30.08 in 10.0 mi East 5.8 mph - N/A   Overcast
5:15 PM 73.4 °F 69.8 °F 88% 30.08 in 10.0 mi East 9.2 mph - N/A   Overcast
5:35 PM 71.6 °F 69.8 °F 94% 30.08 in 9.0 mi East 10.4 mph - N/A   Overcast
5:55 PM 71.6 °F 69.8 °F 94% 30.07 in 8.0 mi ESE 10.4 mph - N/A   Mostly Cloudy
6:15 PM 71.6 °F 69.8 °F 94% 30.06 in 7.0 mi ESE 8.1 mph - N/A   Scattered Clouds
6:35 PM 71.6 °F 69.8 °F 94% 30.07 in 7.0 mi East 9.2 mph - N/A   Scattered Clouds
6:55 PM 71.6 °F 68.0 °F 88% 30.06 in 8.0 mi East 8.1 mph - N/A   Overcast
7:15 PM 71.6 °F 68.0 °F 88% 30.06 in 7.0 mi East 8.1 mph - N/A Rain Light Rain
7:35 PM 71.6 °F 68.0 °F 88% 30.05 in 5.0 mi ESE 9.2 mph - N/A   Mostly Cloudy
7:55 PM 71.6 °F 68.0 °F 88% 30.06 in 7.0 mi SE 4.6 mph - N/A   Overcast
8:15 PM 71.6 °F 68.0 °F 88% 30.05 in 9.0 mi SE 5.8 mph - N/A   Overcast
8:35 PM 71.6 °F 68.0 °F 88% 30.04 in 10.0 mi SE 5.8 mph - N/A   Overcast
8:55 PM 69.8 °F 68.0 °F 94% 30.04 in 7.0 mi SSE 6.9 mph - N/A   Mostly Cloudy
9:15 PM 69.8 °F 68.0 °F 94% 30.06 in 10.0 mi East 4.6 mph - N/A Rain Light Rain
9:35 PM 69.8 °F 68.0 °F 94% 30.06 in 9.0 mi Calm Calm - N/A   Overcast
9:55 PM 69.8 °F 68.0 °F 94% 30.08 in 9.0 mi East 5.8 mph - N/A   Overcast
10:15 PM 69.8 °F 68.0 °F 94% 30.09 in 10.0 mi ENE 3.5 mph - N/A   Overcast
10:35 PM 69.8 °F 68.0 °F 94% 30.09 in 9.0 mi Calm Calm - N/A   Overcast
10:55 PM 69.8 °F 68.0 °F 94% 30.08 in 10.0 mi East 5.8 mph - N/A   Overcast
11:15 PM 69.8 °F 68.0 °F 94% 30.08 in 10.0 mi ESE 5.8 mph - N/A   Overcast
11:35 PM 69.8 °F 68.0 °F 94% 30.08 in 10.0 mi ESE 6.9 mph - N/A   Overcast
11:55 PM 69.8 °F 68.0 °F 94% 30.08 in 10.0 mi SE 6.9 mph - N/A   Overcast